Regional Weather Roundup
Issued by NWS Green Bay, WI

Home | Current Version | Previous Version | Graphics & Text | Print | Product List | Glossary Off
Versions: 1 2 3 4 5 6 7 8 9 10 11 12 13 14 15 16 17 18 19 20 21 22 23 24 25 26 27 28 29 30 31 32 33 34 35 36 37 38 39 40 41 42 43 44 45 46 47 48 49 50

916
ASUS43 KGRB 251711
RWRGRB

NORTH-CENTRAL AND NORTHEAST WISCONSIN REGIONAL WEATHER ROUNDUP
NATIONAL WEATHER SERVICE GREEN BAY WI
1100 AM CST SAT FEB 25 2017

WIZ005-009-010>012-018-019-251800-
NORTH CENTRAL WISCONSIN

CITY           SKY/WX    TMP DP  RH WIND       PRES   REMARKS
IRONWOOD       LGT SNOW  16  10  79 W16       29.74R WCI   0
MANITOWISH WTR LGT SNOW  13   9  85 W14G20    29.69S WCI  -2
ARBOR VITAE    LGT SNOW  17  11  78 NW14G21     N/A  WCI   3
EAGLE RIVER    LGT SNOW  17   9  71 NW17G24   29.65R WCI   1
LAND O LAKES   LGT SNOW  17  12  80 NW15G21   29.66R WCI   2
RHINELANDER    LGT SNOW  17   9  70 NW14G23   29.68R WCI   3
PHILLIPS       CLOUDY    13   6  74 NW13G18   29.75S WCI  -2
ANTIGO         CLOUDY    16   9  74 NW20G26   29.69R WCI  -1
TOMAHAWK       CLOUDY    15   8  75 W10G20    29.73R HAZE    WCI   2
MERRILL        NOT AVBL
$$

WIZ013-073-251800-
NORTHEAST WISCONSIN

CITY           SKY/WX    TMP DP  RH WIND       PRES   REMARKS
IRON MOUNTAIN  LGT SNOW  20  10  65 NW22G30   29.61R WCI   3
MARINETTE      FLURRIES  24  16  71 VRB6G16   29.67R
OCONTO         CLOUDY    23  14  68 NW8G17    29.68S
$$

WIZ017-030-035>037-045-251800-
CENTRAL WISCONSIN

CITY           SKY/WX    TMP DP  RH WIND       PRES   REMARKS
MEDFORD        CLOUDY    13   5  70 W10G22    29.76R WCI   0
WAUSAU         FLURRIES  16   8  71 NW16G22   29.75R WCI   1
MOSINEE        LGT SNOW  16  10  79 W16G24    29.77R WCI   0
MARSHFIELD     FLURRIES  14   5  67 NW16      29.79R WCI  -2
WISC RAPIDS    CLOUDY    17   7  64 NW18      29.82R WCI   1
STEVENS POINT  CLOUDY    15   7  69 W13G22    29.78R WCI   1
WAUPACA        CLOUDY    22  11  62 NW10G18   29.78R
SHAWANO        CLOUDY    22  12  65 CALM      29.73R
CLINTONVILLE   CLOUDY    21  10  63 NW18G24   29.74R WCI   6
WAUTOMA        CLOUDY    19  10  68 NW16G25   29.81R WCI   4
$$

WIZ038-039-048-051-251800-
FOX VALLEY

CITY           SKY/WX    TMP DP  RH WIND       PRES   REMARKS
NWS GREEN BAY  MIX PCPN  22  14  71 W22G28    29.72R WCI   6
APPLETON       CLOUDY    19   9  63 NW13G21   29.73R WCI   7
OSHKOSH        CLOUDY    19  10  68 W14G24    29.77R WCI   6
FOND DU LAC    FLURRIES  19   8  62 W18G24    29.78R WCI   4
$$

WIZ022-050-052-251800-
EAST CENTRAL WISCONSIN

CITY           SKY/WX    TMP DP  RH WIND       PRES   REMARKS
EPHRAIM        CLOUDY    21  17  83 NW10      29.63R FOG
WASHINGTON ISL CLOUDY    21  14  74 NW8       29.62R HAZE
STURGEON BAY   LGT SNOW  23  17  78 W13       29.67R
MANITOWOC      FLURRIES  22  14  71 W18G25    29.73R WCI   7
SHEBOYGAN      FLURRIES  20  12  71 W18G25    29.75R WCI   5
$$

LMZ563-521-522-541>543-251800-
LAKESHORE

STATION/POSITION TIME  TEMP    WIND        PRES    VSBY  WAVE
                       AIR SEA DIR/SP/G                  HT/PER
                 (UTC) (F)     (DEG/KT/KT) (MB)    (MI)  (FT/S)
SHEBOYGAN LKSHOR 1700   19     280/ 13/ 17 1008.3R
KEWAUNEE LKSHORE 1648   21     290/ 13/ 20 1005.0R
NORTHPORT PIER   1620          300/  2       N/A
SISTER BAY LKSHO 1605   22        CALM       N/A
CHAMBERS ISLAND  1640   23     270/  1/  2 1003.7R
MENOMINEE LKSHOR 1648   21     270/  8/ 16 1003.8R
$$




USA.gov is the U.S. government's official web portal to all federal, state and local government web resources and services.